Retour au catalogue

STARLINK-4678

ActifCommunicationsVLEO
NORAD 53780·PAYLOAD·🇺🇸 United States

Lancé Sep 11, 2022 depuis Cape Canaveral Space Force Station

Loading…

Prochains Passages (prochaines 24 heures)

TLE

FraisSource: CelesTrak SupGP

Époque: Sep 15, 2026, 02:57 UTC

1 53780C 22111H   26258.12340278  .00048685  00000+0  14388-2 0  2584
2 53780  53.1584 138.7902 0001235  84.4175 349.0866 15.34358320    12

Suivez STARLINK-4678 en temps réel avec AllMySat

Download on the App Store